SJV938 WARR-WADL

Flight info

Callsign SJV938
Flight time 0h 44m
Altitude 27000
Route ENTAS W34 AGUNG
Aircraft A320/M-SDE3FGHIRWY/LB1

Departure

Time 2026-04-25 15:57
Airport Juanda International Airport (WARR)

Arrival

Time 2026-04-25 16:41
Airport Lombok International Airport (WADL)
Time Latitude Longitude Altitude Speed Heading
2026-04-25 15:46 -7.37655 112.79585 11 ft 2 kts
2026-04-25 15:46 -7.37671 112.79582 10 ft 2 kts 357°
2026-04-25 15:47 -7.37687 112.79586 9 ft 2 kts 327°
2026-04-25 15:47 -7.37699 112.79597 11 ft 2 kts 297°
2026-04-25 15:47 -7.37703 112.79604 12 ft 0 kts 283°
2026-04-25 15:47 -7.37703 112.79605 12 ft 0 kts 283°
2026-04-25 15:49 -7.37703 112.79604 12 ft 1 kts 282°
2026-04-25 15:50 -7.37697 112.79566 9 ft 11 kts 279°
2026-04-25 15:50 -7.37686 112.79500 9 ft 11 kts 279°
2026-04-25 15:50 -7.37713 112.79448 9 ft 10 kts 189°
2026-04-25 15:50 -7.37791 112.79435 9 ft 13 kts 189°
2026-04-25 15:51 -7.37888 112.79415 9 ft 15 kts 202°
2026-04-25 15:51 -7.37911 112.79395 9 ft 11 kts 240°
2026-04-25 15:51 -7.37901 112.79268 9 ft 14 kts 280°
2026-04-25 15:51 -7.37882 112.79161 9 ft 17 kts 279°
2026-04-25 15:52 -7.37865 112.79032 9 ft 20 kts 277°
2026-04-25 15:52 -7.37845 112.78885 10 ft 22 kts 283°
2026-04-25 15:52 -7.37814 112.78726 8 ft 25 kts 278°
2026-04-25 15:52 -7.37785 112.78547 9 ft 27 kts 279°
2026-04-25 15:53 -7.37753 112.78355 9 ft 29 kts 280°
2026-04-25 15:53 -7.37718 112.78151 9 ft 30 kts 277°
2026-04-25 15:53 -7.37686 112.77935 9 ft 32 kts 279°
2026-04-25 15:53 -7.37649 112.77710 9 ft 33 kts 278°
2026-04-25 15:54 -7.37634 112.77610 9 ft 9 kts 279°
2026-04-25 15:54 -7.37621 112.77528 8 ft 14 kts 279°
2026-04-25 15:54 -7.37607 112.77444 8 ft 10 kts 274°
2026-04-25 15:54 -7.37653 112.77384 8 ft 13 kts 194°
2026-04-25 15:55 -7.37676 112.77380 8 ft 1 kts 190°
2026-04-25 15:55 -7.37698 112.77376 9 ft 5 kts 190°
2026-04-25 15:55 -7.37746 112.77368 8 ft 7 kts 189°
2026-04-25 15:55 -7.37773 112.77392 11 ft 5 kts 99°
2026-04-25 15:56 -7.37789 112.77486 9 ft 38 kts 99°
2026-04-25 15:56 -7.37919 112.78297 8 ft 132 kts 99°
2026-04-25 15:56 -7.38097 112.79379 126 ft 172 kts 98°
2026-04-25 15:56 -7.38230 112.80182 580 ft 171 kts 98°
2026-04-25 15:57 -7.38414 112.81372 1351 ft 167 kts 98°
2026-04-25 15:57 -7.38595 112.82500 2219 ft 166 kts 99°
2026-04-25 15:57 -7.38792 112.83716 2781 ft 185 kts 98°
2026-04-25 15:57 -7.39004 112.85026 3408 ft 200 kts 98°
2026-04-25 15:58 -7.39237 112.86483 4016 ft 218 kts 98°
2026-04-25 15:58 -7.39481 112.87998 4944 ft 220 kts 99°
2026-04-25 15:58 -7.39728 112.89525 5851 ft 222 kts 99°
2026-04-25 15:58 -7.39979 112.91076 6720 ft 226 kts 99°
2026-04-25 15:59 -7.40248 112.92648 7568 ft 229 kts 102°
2026-04-25 15:59 -7.40596 112.94226 8398 ft 232 kts 102°
2026-04-25 15:59 -7.40946 112.95825 9252 ft 235 kts 102°
2026-04-25 15:59 -7.41299 112.97443 10068 ft 238 kts 102°
2026-04-25 16:00 -7.41655 112.99082 10817 ft 241 kts 102°
2026-04-25 16:00 -7.41894 113.00179 11318 ft 243 kts 102°
2026-04-25 16:00 -7.42381 113.02424 12336 ft 247 kts 102°
2026-04-25 16:00 -7.42749 113.04125 13096 ft 250 kts 102°
2026-04-25 16:01 -7.43123 113.05850 13816 ft 254 kts 102°
2026-04-25 16:01 -7.43497 113.07577 14455 ft 257 kts 102°
2026-04-25 16:01 -7.43879 113.09342 15118 ft 259 kts 102°
2026-04-25 16:01 -7.44266 113.11129 15782 ft 262 kts 102°
2026-04-25 16:02 -7.44658 113.12936 16417 ft 266 kts 102°
2026-04-25 16:02 -7.45054 113.14766 17052 ft 269 kts 102°
2026-04-25 16:02 -7.45453 113.16608 17720 ft 270 kts 103°
2026-04-25 16:02 -7.45857 113.18471 18331 ft 273 kts 103°
2026-04-25 16:03 -7.46265 113.20353 18877 ft 276 kts 103°
2026-04-25 16:03 -7.46675 113.22247 19436 ft 278 kts 103°
2026-04-25 16:03 -7.47087 113.24153 19974 ft 280 kts 103°
2026-04-25 16:03 -7.47505 113.26084 20498 ft 283 kts 103°
2026-04-25 16:04 -7.47927 113.28035 21015 ft 286 kts 102°
2026-04-25 16:04 -7.48352 113.30003 21542 ft 289 kts 102°
2026-04-25 16:04 -7.48783 113.31993 22041 ft 292 kts 102°
2026-04-25 16:04 -7.49217 113.34002 22549 ft 295 kts 102°
2026-04-25 16:05 -7.49651 113.36010 23053 ft 298 kts 102°
2026-04-25 16:05 -7.50093 113.38059 23528 ft 301 kts 102°
2026-04-25 16:05 -7.50993 113.42226 24346 ft 306 kts 102°
2026-04-25 16:06 -7.51447 113.44333 24739 ft 309 kts 102°
2026-04-25 16:06 -7.51907 113.46465 25126 ft 312 kts 102°
2026-04-25 16:06 -7.52368 113.48610 25524 ft 315 kts 102°
2026-04-25 16:06 -7.52835 113.50781 25903 ft 318 kts 102°
2026-04-25 16:07 -7.53306 113.52968 26295 ft 321 kts 102°
2026-04-25 16:07 -7.53620 113.54426 26546 ft 322 kts 102°
2026-04-25 16:07 -7.54266 113.57432 26775 ft 336 kts 102°
2026-04-25 16:07 -7.54770 113.59777 26879 ft 348 kts 102°
2026-04-25 16:08 -7.55294 113.62213 26907 ft 362 kts 102°
2026-04-25 16:08 -7.55837 113.64743 26912 ft 377 kts 102°
2026-04-25 16:08 -7.56403 113.67375 26908 ft 391 kts 102°
2026-04-25 16:08 -7.56989 113.70105 26910 ft 405 kts 102°
2026-04-25 16:09 -7.57597 113.72935 26911 ft 419 kts 102°
2026-04-25 16:09 -7.58222 113.75847 26920 ft 431 kts 102°
2026-04-25 16:09 -7.58860 113.78822 26919 ft 437 kts 102°
2026-04-25 16:09 -7.59494 113.81777 26917 ft 435 kts 102°
2026-04-25 16:10 -7.60134 113.84759 26918 ft 435 kts 102°
2026-04-25 16:10 -7.60773 113.87742 26920 ft 435 kts 102°
2026-04-25 16:10 -7.61414 113.90731 26918 ft 436 kts 102°
2026-04-25 16:10 -7.62052 113.93711 26921 ft 435 kts 102°
2026-04-25 16:11 -7.62694 113.96705 26918 ft 435 kts 102°
2026-04-25 16:11 -7.63333 113.99689 26924 ft 435 kts 102°
2026-04-25 16:11 -7.63971 114.02672 26920 ft 436 kts 102°
2026-04-25 16:11 -7.64602 114.05623 26924 ft 436 kts 102°
2026-04-25 16:12 -7.65241 114.08607 26922 ft 436 kts 102°
2026-04-25 16:12 -7.65879 114.11594 26921 ft 436 kts 102°
2026-04-25 16:12 -7.66517 114.14578 26925 ft 436 kts 102°
2026-04-25 16:12 -7.66949 114.16598 26922 ft 436 kts 102°
2026-04-25 16:13 -7.67795 114.20558 26925 ft 436 kts 102°
2026-04-25 16:13 -7.68432 114.23542 26928 ft 436 kts 102°
2026-04-25 16:13 -7.69069 114.26528 26923 ft 436 kts 102°
2026-04-25 16:13 -7.69707 114.29516 26921 ft 436 kts 102°
2026-04-25 16:14 -7.70346 114.32515 26927 ft 436 kts 102°
2026-04-25 16:14 -7.70976 114.35467 26922 ft 423 kts 102°
2026-04-25 16:14 -7.71582 114.38308 26924 ft 405 kts 102°
2026-04-25 16:14 -7.72161 114.41023 26922 ft 388 kts 102°
2026-04-25 16:15 -7.72726 114.43671 26923 ft 389 kts 102°
2026-04-25 16:15 -7.73300 114.46362 26924 ft 395 kts 102°
2026-04-25 16:15 -7.73870 114.49039 26919 ft 394 kts 102°
2026-04-25 16:15 -7.74446 114.51740 26920 ft 393 kts 102°
2026-04-25 16:16 -7.75023 114.54448 26915 ft 394 kts 102°
2026-04-25 16:16 -7.75599 114.57152 26918 ft 394 kts 102°
2026-04-25 16:16 -7.76776 114.62679 26916 ft 394 kts 102°
2026-04-25 16:17 -7.77350 114.65378 26912 ft 393 kts 102°
2026-04-25 16:17 -7.77924 114.68075 26921 ft 394 kts 102°
2026-04-25 16:17 -7.78499 114.70779 26917 ft 394 kts 102°
2026-04-25 16:17 -7.79074 114.73484 26916 ft 394 kts 102°
2026-04-25 16:18 -7.79648 114.76184 26924 ft 394 kts 102°
2026-04-25 16:18 -7.79842 114.77098 26914 ft 394 kts 102°
2026-04-25 16:18 -7.80795 114.81585 26919 ft 394 kts 102°
2026-04-25 16:18 -7.81369 114.84286 26917 ft 394 kts 102°
2026-04-25 16:19 -7.81942 114.86990 26916 ft 394 kts 102°
2026-04-25 16:19 -7.82516 114.89693 26806 ft 395 kts 102°
2026-04-25 16:19 -7.83089 114.92396 26578 ft 393 kts 102°
2026-04-25 16:20 -7.84034 114.96854 26175 ft 389 kts 102°
2026-04-25 16:20 -7.85215 115.00272 25866 ft 387 kts 118°
2026-04-25 16:20 -7.87805 115.05023 25409 ft 385 kts 118°
2026-04-25 16:21 -7.89082 115.07360 25176 ft 384 kts 118°
2026-04-25 16:21 -7.90368 115.09713 24971 ft 382 kts 118°
2026-04-25 16:21 -7.91648 115.12055 24740 ft 381 kts 118°
2026-04-25 16:21 -7.92925 115.14391 24521 ft 379 kts 118°
2026-04-25 16:22 -7.94196 115.16716 24302 ft 378 kts 118°
2026-04-25 16:22 -7.95463 115.19035 24082 ft 376 kts 118°
2026-04-25 16:22 -7.96727 115.21348 23865 ft 375 kts 118°
2026-04-25 16:22 -7.97987 115.23655 23657 ft 374 kts 118°
2026-04-25 16:23 -7.99244 115.25956 23294 ft 375 kts 118°
2026-04-25 16:23 -8.00499 115.28256 22807 ft 373 kts 118°
2026-04-25 16:23 -8.01745 115.30537 22323 ft 369 kts 118°
2026-04-25 16:23 -8.02978 115.32797 21839 ft 366 kts 118°
2026-04-25 16:24 -8.04204 115.35042 21357 ft 364 kts 118°
2026-04-25 16:24 -8.05420 115.37270 20874 ft 361 kts 118°
2026-04-25 16:24 -8.06629 115.39486 20408 ft 359 kts 118°
2026-04-25 16:24 -8.07820 115.41669 19941 ft 357 kts 118°
2026-04-25 16:25 -8.09010 115.43851 19582 ft 352 kts 118°
2026-04-25 16:25 -8.09407 115.44580 19471 ft 350 kts 118°
2026-04-25 16:25 -8.11343 115.48129 18764 ft 344 kts 118°
2026-04-25 16:25 -8.12491 115.50235 18154 ft 341 kts 118°
2026-04-25 16:26 -8.13633 115.52331 17615 ft 339 kts 118°
2026-04-25 16:26 -8.14767 115.54411 17166 ft 337 kts 118°
2026-04-25 16:26 -8.15896 115.56482 16730 ft 335 kts 118°
2026-04-25 16:26 -8.17014 115.58535 16282 ft 333 kts 118°
2026-04-25 16:27 -8.18126 115.60577 15840 ft 331 kts 118°
2026-04-25 16:27 -8.19233 115.62609 15404 ft 329 kts 118°
2026-04-25 16:27 -8.20333 115.64629 14969 ft 327 kts 118°
2026-04-25 16:27 -8.21412 115.66610 14575 ft 324 kts 118°
2026-04-25 16:28 -8.22491 115.68592 14221 ft 320 kts 118°
2026-04-25 16:28 -8.23561 115.70556 13827 ft 318 kts 118°
2026-04-25 16:28 -8.24625 115.72511 13390 ft 316 kts 118°
2026-04-25 16:28 -8.25681 115.74453 12954 ft 314 kts 118°
2026-04-25 16:29 -8.26730 115.76381 12520 ft 312 kts 118°
2026-04-25 16:29 -8.27774 115.78298 12091 ft 310 kts 118°
2026-04-25 16:29 -8.28811 115.80204 11676 ft 309 kts 118°
2026-04-25 16:29 -8.29841 115.82098 11256 ft 307 kts 118°
2026-04-25 16:30 -8.30856 115.83964 11001 ft 296 kts 118°
2026-04-25 16:30 -8.31837 115.85768 10521 ft 292 kts 118°
2026-04-25 16:30 -8.32804 115.87545 10140 ft 291 kts 118°
2026-04-25 16:30 -8.33784 115.89350 9767 ft 288 kts 118°
2026-04-25 16:31 -8.34779 115.91070 9358 ft 287 kts 125°
2026-04-25 16:31 -8.36114 115.92559 8813 ft 286 kts 139°
2026-04-25 16:31 -8.37755 115.93702 8384 ft 286 kts 147°
2026-04-25 16:31 -8.39432 115.94777 8007 ft 284 kts 146°
2026-04-25 16:32 -8.41089 115.95855 7624 ft 283 kts 146°
2026-04-25 16:32 -8.42737 115.96933 7240 ft 281 kts 146°
2026-04-25 16:32 -8.44376 115.98006 6868 ft 279 kts 146°
2026-04-25 16:32 -8.46004 115.99071 6508 ft 278 kts 146°
2026-04-25 16:33 -8.47620 116.00128 6196 ft 274 kts 146°
2026-04-25 16:33 -8.49222 116.01175 6069 ft 278 kts 146°
2026-04-25 16:33 -8.50835 116.02230 5867 ft 274 kts 146°
2026-04-25 16:33 -8.52395 116.03250 5723 ft 259 kts 146°
2026-04-25 16:34 -8.53868 116.04211 5495 ft 247 kts 146°
2026-04-25 16:34 -8.55302 116.05150 5029 ft 244 kts 146°
2026-04-25 16:34 -8.56700 116.06066 4681 ft 241 kts 146°
2026-04-25 16:34 -8.58114 116.06993 4530 ft 238 kts 146°
2026-04-25 16:35 -8.59445 116.07872 4468 ft 217 kts 143°
2026-04-25 16:35 -8.60226 116.08485 4423 ft 205 kts 137°
2026-04-25 16:35 -8.61501 116.09811 4138 ft 194 kts 129°
2026-04-25 16:35 -8.62383 116.10891 3976 ft 200 kts 128°
2026-04-25 16:36 -8.62952 116.11601 3870 ft 191 kts 128°
2026-04-25 16:36 -8.63492 116.12271 3714 ft 179 kts 128°
2026-04-25 16:36 -8.64445 116.13457 3437 ft 150 kts 128°
2026-04-25 16:36 -8.65068 116.14235 3253 ft 136 kts 128°
2026-04-25 16:37 -8.65668 116.14984 3089 ft 138 kts 128°
2026-04-25 16:37 -8.66270 116.15735 2909 ft 137 kts 128°
2026-04-25 16:37 -8.66871 116.16485 2729 ft 137 kts 128°
2026-04-25 16:37 -8.67469 116.17230 2558 ft 137 kts 128°
2026-04-25 16:38 -8.68067 116.17977 2391 ft 136 kts 128°
2026-04-25 16:38 -8.68657 116.18712 2211 ft 136 kts 128°
2026-04-25 16:38 -8.69253 116.19455 2035 ft 136 kts 128°
2026-04-25 16:38 -8.69848 116.20196 1857 ft 136 kts 128°
2026-04-25 16:39 -8.70441 116.20936 1686 ft 135 kts 128°
2026-04-25 16:39 -8.71034 116.21675 1506 ft 135 kts 128°
2026-04-25 16:39 -8.71625 116.22412 1342 ft 135 kts 128°
2026-04-25 16:39 -8.72220 116.23154 1170 ft 135 kts 129°
2026-04-25 16:40 -8.72811 116.23892 1000 ft 135 kts 129°
2026-04-25 16:40 -8.73405 116.24628 830 ft 135 kts 129°
2026-04-25 16:40 -8.73986 116.25356 671 ft 135 kts 129°
2026-04-25 16:40 -8.74573 116.26099 481 ft 135 kts 129°
2026-04-25 16:41 -8.75162 116.26830 331 ft 132 kts 129°
2026-04-25 16:41 -8.75517 116.27271 329 ft 102 kts 129°
2026-04-25 16:41 -8.75932 116.27786 330 ft 18 kts 129°
2026-04-25 16:42 -8.76003 116.27830 332 ft 11 kts 196°
2026-04-25 16:42 -8.76064 116.27786 333 ft 10 kts 218°
2026-04-25 16:42 -8.76132 116.27732 330 ft 14 kts 218°
2026-04-25 16:42 -8.76182 116.27676 329 ft 10 kts 259°
2026-04-25 16:43 -8.76146 116.27619 327 ft 11 kts 308°
2026-04-25 16:43 -8.76102 116.27558 328 ft 4 kts 281°
2026-04-25 16:43 -8.76117 116.27544 333 ft 4 kts 223°
2026-04-25 16:43 -8.76151 116.27515 328 ft 8 kts 219°
2026-04-25 16:44 -8.76167 116.27502 329 ft 1 kts 219°
2026-04-25 16:44 -8.76171 116.27499 329 ft 0 kts 219°